User: anonymous   Login
Location: Unspecified
(0.0000°N, 0.0000°E)
Time: 08:03:30
(UTC+02:00)
Language:

ARIANE 5 R/B - Orbit

View from above orbital plane
View from above orbital plane
View from above satellite
View from above satellite

Ground track
Ground track

The orbit data is extracted from the following two-line orbital elements,

1 28787U 05028B   15184.51507775 -.00000137  00000-0 -51134-3 0  9993
2 28787 007.1852 314.6998 7161429 017.6335 008.0279 02.26556680 81906
Epoch (UTC): 03 July 2015 12:21:42
Eccentricity: 0.7161429
inclination: 7.1852°
perigee height: 573 km
apogee height: 35646 km
right ascension of ascending node: 314.6998°
argument of perigee: 17.6335°
revolutions per day: 2.26556680
mean anomaly at epoch: 8.0279°
orbit number at epoch: 8190

The dashed part of the orbit path shows where the satellite is in the earth's shadow,  

DLR